Poughkeepsie, NY

2:41 PM EST on December 16, 2017 (GMT -0500)
Dutchess County

Weather History for KPOU - December, 2011

Change the Weather History Date:

Saturday, December 17, 2011

  Actual Average Record
Temperature  
Mean Temperature 32 °F 30 °F  
Max Temperature 40 °F 40 °F 63 °F (2000)
Min Temperature 24 °F 21 °F 0 °F (1980)
Degree Days  
Heating Degree Days 33 34  
Month to date heating degree days 451 536  
Since 1 July heating degree days 1428 1814  
Cooling Degree Days 0 0  
Month to date cooling degree days 0 0  
Year to date cooling degree days 908 672  
Moisture  
Dew Point 21 °F    
Average Humidity 67    
Maximum Humidity 92    
Minimum Humidity 48    
Precipitation  
Precipitation 0.00 in 0.11 in 1.76 in (2000)
Month to date precipitation 2.72 2.00  
Year to date precipitation 57.52 45.00  
Sea Level Pressure  
Sea Level Pressure 30.11 in    
Wind  
Wind Speed 4 mph (NNE)    
Max Wind Speed 14 mph    
Max Gust Speed 20 mph    
Visibility 10 miles    
Events      
T = Trace of Precipitation, MM = Missing Value Source: NWS Daily Summary

Daily Weather History Graph

Daily Weather History Graph

Search for Another Location

Airport or City:

Trip Planner

Search our weather history database for the weather conditions in past years. The results will help you decide how hot, cold, wet, or windy it might be!

Date:

Astronomy

Dec. 17, 2011 Rise Set
Actual Time 7:16 AM EST 4:26 PM EST
Civil Twilight 6:44 AM EST 4:58 PM EST
Nautical Twilight 6:09 AM EST 5:33 PM EST
Astronomical Twilight 5:36 AM EST 6:06 PM EST
Moon No Moon Rise 11:25 AM EST (12/17)
Length of Visible Light 10h 13m
Length of Day
9h 10m
Waning Gibbous, 54% of the Moon is Illuminated
Dec 17
Waning Gibbous
Dec 17
Last Quarter
Dec 24
New
Jan 1
First Quarter
Jan 9
Full

Hourly Weather History & Observations

Time (EST) Temp. Windchill Dew Point Humidity Pressure Visibility Wind Dir Wind Speed Gust Speed Precip Events Conditions
12:53 AM 32.0 °F - 27.0 °F 82% 30.07 in 10.0 mi Calm Calm - N/A   Clear
1:53 AM 28.9 °F - 26.1 °F 89% 30.08 in 10.0 mi Calm Calm - N/A   Partly Cloudy
2:53 AM 28.0 °F - 24.1 °F 85% 30.08 in 10.0 mi Calm Calm - N/A   Clear
3:53 AM 28.9 °F - 25.0 °F 85% 30.06 in 10.0 mi Calm Calm - N/A   Partly Cloudy
4:53 AM 27.0 °F - 24.1 °F 89% 30.06 in 10.0 mi Calm Calm - N/A   Clear
5:53 AM 28.0 °F - 24.1 °F 85% 30.08 in 10.0 mi Calm Calm - N/A   Mostly Cloudy
6:53 AM 28.0 °F - 24.1 °F 85% 30.09 in 10.0 mi Calm Calm - N/A   Partly Cloudy
7:53 AM 27.0 °F - 25.0 °F 92% 30.10 in 8.0 mi Calm Calm - N/A   Partly Cloudy
8:53 AM 32.0 °F - 28.0 °F 85% 30.10 in 10.0 mi Calm Calm - N/A   Mostly Cloudy
9:53 AM 37.9 °F - 28.9 °F 70% 30.11 in 10.0 mi Calm Calm - N/A   Mostly Cloudy
10:53 AM 37.0 °F 32.4 °F 26.1 °F 65% 30.10 in 10.0 mi North 5.8 mph - N/A   Overcast
11:53 AM 37.9 °F 34.4 °F 24.1 °F 57% 30.08 in 10.0 mi Variable 4.6 mph - N/A   Overcast
12:53 PM 39.0 °F 32.8 °F 21.0 °F 49% 30.07 in 10.0 mi North 9.2 mph - N/A   Overcast
1:53 PM 37.9 °F 31.5 °F 21.0 °F 51% 30.07 in 10.0 mi NNE 9.2 mph - N/A   Overcast
2:53 PM 37.9 °F 33.5 °F 19.9 °F 48% 30.09 in 10.0 mi North 5.8 mph - N/A   Overcast
3:53 PM 36.0 °F 29.0 °F 19.0 °F 50% 30.10 in 10.0 mi North 9.2 mph - N/A   Overcast
4:53 PM 34.0 °F 26.0 °F 18.0 °F 52% 30.12 in 10.0 mi NNE 10.4 mph - N/A   Overcast
5:53 PM 33.1 °F 24.4 °F 17.1 °F 52% 30.14 in 10.0 mi North 11.5 mph - N/A   Overcast
6:53 PM 30.2 °F 21.9 °F 15.8 °F 55% 30.16 in 10.0 mi NNE 9.2 mph - N/A   Overcast
7:53 PM 28.9 °F 23.9 °F 15.1 °F 56% 30.17 in 10.0 mi North 4.6 mph - N/A   Scattered Clouds
8:53 PM 28.0 °F - 14.0 °F 56% 30.17 in 10.0 mi Calm Calm - N/A   Overcast
9:53 PM 28.0 °F 20.0 °F 14.0 °F 56% 30.17 in 10.0 mi North 8.1 mph - N/A   Mostly Cloudy
10:53 PM 26.1 °F 18.4 °F 12.9 °F 58% 30.17 in 10.0 mi NNE 6.9 mph - N/A   Partly Cloudy
11:53 PM 24.1 °F 16.0 °F 12.0 °F 60% 30.17 in 10.0 mi North 6.9 mph - N/A   Partly Cloudy